GW0191 Weather Reports


time (UTC)temp
F
wind
direction
speed
knots
gust
knots
rain 1hr
in
rain 24hr
in
rain mn
in
humidity
%
barometer
mb
20260505171621 81 121 2.6 6.1 0.00 0.00 0.00 80 1012.9
20260505171118 80 115 0.9 6.1 0.00 0.00 0.00 81 1012.9
20260505170615 80 344 0.9 1.7 0.00 0.00 0.00 81 1013.1
20260505170111 80 271 1.7 7.8 0.00 0.00 0.00 81 1013.0
20260505165606 80 189 0.0 1.7 0.00 0.00 0.00 82 1013.3
20260505165103 79 147 0.9 7.0 0.00 0.00 0.00 82 1013.1
20260505164558 79 4 0.9 1.7 0.00 0.00 0.00 83 1013.2
20260505164056 79 191 5.2 7.0 0.00 0.00 0.00 83 1013.1
20260505163555 79 270 1.7 5.2 0.00 0.00 0.00 83 1013.0
20260505163051 78 306 0.9 7.0 0.00 0.00 0.00 84 1013.1
20260505162549 78 187 5.2 6.1 0.00 0.00 0.00 83 1013.2
20260505162047 78 163 1.7 4.3 0.00 0.00 0.00 83 1012.7
20260505161544 79 125 1.7 4.3 0.00 0.00 0.00 83 1012.8
20260505161041 79 246 1.7 5.2 0.00 0.00 0.00 82 1013.0
20260505160539 79 342 1.7 6.1 0.00 0.00 0.00 83 1013.0
20260505153015 77 141 0.9 6.1 0.00 0.00 0.00 84 1012.8
20260505152512 77 137 0.9 2.6 0.00 0.00 0.00 84 1012.9
20260505152008 77 186 0.9 5.2 0.00 0.00 0.00 84 1012.7
20260505151503 77 238 0.9 0.9 0.00 0.00 0.00 84 1012.8
20260505151000 77 169 1.7 2.6 0.00 0.00 0.00 84 1012.8
20260505150457 77 287 0.9 5.2 0.00 0.00 0.00 84 1012.9
20260505140427 76 303 1.7 1.7 0.00 0.00 0.00 85 1012.3
20260505124841 74 186 0.0 0.9 0.00 0.00 0.00 88 1011.8
20260505124337 73 241 0.0 2.6 0.00 0.00 0.00 89 1012.2
20260505123833 73 286 0.0 1.7 0.00 0.00 0.00 89 1012.2
20260505123330 73 185 0.9 0.9 0.00 0.00 0.00 89 1012.3
20260505122826 73 182 0.9 1.7 0.00 0.00 0.00 89 1012.3
20260505122324 73 157 0.0 1.7 0.00 0.00 0.00 89 1012.3
20260505121820 72 290 0.0 1.7 0.00 0.00 0.00 90 1012.4
20260505121318 72 162 0.9 0.9 0.00 0.00 0.00 90 1012.3
20260505120813 72 157 0.0 1.7 0.00 0.00 0.00 90 1012.1
20260505120309 72 290 0.9 2.6 0.00 0.00 0.00 90 1012.1
20260505115808 72 191 0.9 1.7 0.00 0.00 0.00 90 1012.0
20260505115306 72 235 0.9 1.7 0.00 0.00 0.00 90 1011.6
20260505114803 72 204 0.9 1.7 0.00 0.00 0.00 90 1011.8
20260505114300 72 180 0.9 2.6 0.00 0.00 0.00 89 1011.9
20260505113756 72 290 0.0 1.7 0.00 0.00 0.00 89 1012.1
20260505113253 72 298 0.0 4.3 0.00 0.00 0.00 89 1012.1
20260505112748 72 178 0.0 0.9 0.00 0.00 0.00 89 1012.1
20260505112246 72 303 0.0 1.7 0.00 0.00 0.00 89 1011.8
20260505111741 72 229 0.0 0.9 0.00 0.00 0.00 89 1012.0
20260505111237 72 143 0.9 0.9 0.00 0.00 0.00 89 1011.8
20260505110733 72 180 0.9 1.7 0.00 0.00 0.00 89 1011.9
20260505110231 72 188 0.9 1.7 0.00 0.00 0.00 89 1011.6
20260505102207 72 309 0.0 2.6 0.00 0.00 0.00 89 1011.9
20260505101705 71 230 0.0 0.9 0.00 0.00 0.00 89 1011.9
20260505101201 71 212 0.0 0.9 0.00 0.00 0.00 89 1012.0
20260505100657 71 212 1.7 1.7 0.00 0.00 0.00 89 1011.9
20260505100154 71 226 0.9 0.9 0.00 0.00 0.00 89 1012.1
20260505095650 71 153 0.0 0.9 0.00 0.00 0.00 89 1012.0
20260505095148 71 251 0.9 0.9 0.00 0.00 0.00 89 1012.2
20260505094643 72 146 0.9 0.9 0.00 0.00 0.00 89 1012.2
20260505094140 72 231 1.7 1.7 0.00 0.00 0.00 89 1012.0
20260505093636 72 213 0.9 1.7 0.00 0.00 0.00 88 1012.0
20260505093134 72 201 0.9 1.7 0.00 0.00 0.00 88 1012.1
20260505092630 72 270 0.9 1.7 0.00 0.00 0.00 88 1012.2
20260505092129 71 273 0.0 1.7 0.00 0.00 0.00 88 1012.5
20260505091625 71 286 0.0 0.9 0.00 0.00 0.00 89 1012.4
20260505091124 71 270 0.9 1.7 0.00 0.00 0.00 89 1012.2
20260505090621 71 228 0.0 0.9 0.00 0.00 0.00 89 1011.9
20260505090119 71 193 0.0 1.7 0.00 0.00 0.00 89 1012.3
20260505085616 71 193 0.9 1.7 0.00 0.00 0.00 89 1012.1
20260505085115 71 204 0.9 0.9 0.00 0.00 0.00 89 1012.4
20260505084612 71 243 0.0 0.9 0.00 0.00 0.00 89 1012.3
20260505084110 71 184 0.9 0.9 0.00 0.00 0.00 89 1012.3
20260505083608 71 280 0.9 1.7 0.00 0.00 0.00 88 1012.3
20260505083104 71 184 0.0 0.9 0.00 0.00 0.00 88 1012.4
20260505082559 71 170 0.9 1.7 0.00 0.00 0.00 88 1012.6
20260505082057 71 283 0.0 0.9 0.00 0.00 0.00 88 1012.6
20260505081553 71 303 0.9 1.7 0.00 0.00 0.00 87 1012.7
20260505081050 71 250 0.0 0.9 0.00 0.00 0.00 87 1012.7
20260505080546 71 177 0.9 1.7 0.00 0.00 0.00 87 1012.8
20260505080043 71 299 0.9 1.7 0.00 0.00 0.00 87 1012.7
20260505075539 71 163 1.7 1.7 0.00 0.00 0.00 87 1012.7
20260505075036 71 184 0.0 1.7 0.00 0.00 0.00 87 1012.5
20260505074533 71 281 0.9 1.7 0.00 0.00 0.00 87 1012.9
20260505074030 71 183 0.0 4.3 0.00 0.00 0.00 87 1013.0
20260505073527 71 356 0.9 2.6 0.00 0.00 0.00 86 1012.9
20260505073026 71 328 0.0 1.7 0.00 0.00 0.00 86 1013.1
20260505072521 71 293 0.9 1.7 0.00 0.00 0.00 86 1012.9
20260505072018 71 258 0.9 1.7 0.00 0.00 0.00 86 1012.8
20260505071513 71 294 0.9 2.6 0.00 0.00 0.00 86 1013.1
20260505071012 71 132 1.7 2.6 0.00 0.00 0.00 86 1013.1
20260505070509 71 129 0.9 1.7 0.00 0.00 0.00 85 1013.1
20260505070005 71 169 0.0 2.6 0.00 0.00 0.00 85 1013.2
20260505065501 71 322 0.9 0.9 0.00 0.00 0.00 85 1013.2
20260505064957 71 114 0.9 0.9 0.00 0.00 0.00 85 1013.1
20260505064454 72 215 0.0 0.9 0.00 0.00 0.00 85 1013.3
20260505063953 72 319 1.7 5.2 0.00 0.00 0.00 85 1013.3
20260505063449 72 162 2.6 4.3 0.00 0.00 0.00 85 1013.4
20260505062945 71 302 1.7 7.0 0.00 0.00 0.00 84 1013.5
20260505062442 72 291 0.9 1.7 0.00 0.00 0.00 84 1013.6
20260505061939 72 133 3.5 5.2 0.00 0.00 0.00 84 1013.6
20260505061437 72 203 0.9 2.6 0.00 0.00 0.00 84 1013.7
20260505060935 71 206 2.6 5.2 0.00 0.00 0.00 84 1013.7
20260505060432 71 243 0.9 2.6 0.00 0.00 0.00 84 1013.8
20260505055927 71 294 0.0 0.9 0.00 0.00 0.00 84 1013.6
20260505055424 71 298 0.9 2.6 0.00 0.00 0.00 84 1013.8
20260505054921 72 196 0.9 2.6 0.00 0.00 0.00 84 1013.8
20260505054418 72 86 0.0 1.7 0.00 0.00 0.00 84 1013.7
20260505053916 71 189 1.7 1.7 0.00 0.00 0.00 84 1013.8
20260505053413 71 286 0.9 2.6 0.00 0.00 0.00 83 1013.7
20260505052910 72 182 0.9 1.7 0.00 0.00 0.00 83 1013.6
20260505052406 72 248 0.9 2.6 0.00 0.00 0.00 83 1014.2
20260505051904 72 226 0.0 1.7 0.00 0.00 0.00 83 1014.0
20260505051401 72 167 0.9 2.6 0.00 0.00 0.00 83 1014.2
20260505050859 72 286 0.0 1.7 0.00 0.00 0.00 83 1014.2
20260505050357 72 191 0.9 0.9 0.00 0.00 0.00 82 1014.2
20260505041325 73 302 1.7 4.3 0.00 0.00 0.00 80 1014.1
20260505040821 73 148 1.7 1.7 0.00 0.00 0.00 80 1014.2
20260505040319 73 133 0.9 2.6 0.00 0.00 0.00 80 1014.2
20260505035816 73 167 0.9 2.6 0.00 0.00 0.00 80 1014.5
20260505035311 73 197 0.9 1.7 0.00 0.00 0.00 79 1014.2
20260505034809 73 324 0.0 1.7 0.00 0.00 0.00 79 1014.3
20260505034305 73 272 1.7 6.1 0.00 0.00 0.00 79 1014.3
20260505033803 74 191 1.7 4.3 0.00 0.00 0.00 79 1014.5
20260505033300 74 249 1.7 2.6 0.00 0.00 0.00 79 1014.6
20260505032758 74 158 1.7 4.3 0.00 0.00 0.00 78 1014.6
20260505032253 74 230 1.7 5.2 0.00 0.00 0.00 78 1014.5
20260505031751 74 37 1.7 2.6 0.00 0.00 0.00 79 1014.6
20260505031247 74 304 0.9 1.7 0.00 0.00 0.00 79 1014.3
20260505030744 74 273 2.6 4.3 0.00 0.00 0.00 78 1014.4
20260505030240 74 287 0.9 2.6 0.00 0.00 0.00 79 1014.3
20260505025736 74 9 1.7 2.6 0.00 0.00 0.00 78 1014.3
20260505025234 74 213 0.9 1.7 0.00 0.00 0.00 78 1014.4
20260505024732 74 147 0.9 4.3 0.00 0.00 0.00 78 1014.3
20260505024229 74 244 0.9 2.6 0.00 0.00 0.00 78 1014.1
20260505023726 74 136 0.9 0.9 0.00 0.00 0.00 78 1014.3
20260505023224 74 267 0.9 4.3 0.00 0.00 0.00 78 1014.3
20260505022721 74 318 0.0 5.2 0.00 0.00 0.00 77 1014.3
20260505022218 74 314 0.9 4.3 0.00 0.00 0.00 77 1014.1
20260505021714 75 214 2.6 5.2 0.00 0.00 0.00 77 1014.2
20260505021212 75 328 2.6 4.3 0.00 0.00 0.00 76 1014.1
20260505020707 75 135 1.7 2.6 0.00 0.00 0.00 76 1014.2
20260505020203 75 157 0.9 2.6 0.00 0.00 0.00 76 1014.2
20260505015700 75 190 1.7 4.3 0.00 0.00 0.00 75 1014.1
20260505015157 75 304 0.9 2.6 0.00 0.00 0.00 75 1014.1
20260505014654 75 51 2.6 4.3 0.00 0.00 0.00 75 1013.9
20260505014151 75 99 1.7 2.6 0.00 0.00 0.00 75 1013.7
20260505013648 75 178 2.6 5.2 0.00 0.00 0.00 74 1013.7
20260505013145 76 279 0.9 4.3 0.00 0.00 0.00 74 1013.6
20260505012643 76 221 0.9 2.6 0.00 0.00 0.00 74 1013.8
20260505012140 76 233 0.9 2.6 0.00 0.00 0.00 74 1013.7
20260505011636 76 141 1.7 1.7 0.00 0.00 0.00 74 1013.7
20260505011134 76 119 1.7 2.6 0.00 0.00 0.00 73 1014.0
20260505010634 76 219 0.9 1.7 0.00 0.00 0.00 73 1013.8
20260505010131 76 321 0.9 1.7 0.00 0.00 0.00 73 1013.7
20260505005627 76 241 0.9 1.7 0.00 0.00 0.00 73 1013.6
20260505005124 76 6 0.0 0.9 0.00 0.00 0.00 73 1013.8
20260505004621 76 326 0.0 2.6 0.00 0.00 0.00 72 1013.5
20260505004118 77 176 3.5 6.1 0.00 0.00 0.00 72 1013.7
20260505003615 77 255 0.9 1.7 0.00 0.00 0.00 72 1013.5
20260505003113 77 142 0.9 1.7 0.00 0.00 0.00 71 1013.5
20260505002608 77 124 1.7 2.6 0.00 0.00 0.00 71 1013.3
20260505002107 77 105 1.7 2.6 0.00 0.00 0.00 70 1013.5
20260505001604 78 178 0.9 1.7 0.00 0.00 0.00 70 1013.7
20260505001101 78 148 1.7 1.7 0.00 0.00 0.00 69 1013.5
20260505000558 78 181 1.7 4.3 0.00 0.00 0.00 69 1013.7
20260505000056 78 58 0.9 1.7 0.00 0.00 0.00 69 1013.6
20260504235552 78 268 0.0 4.3 0.00 0.00 0.00 69 1013.5
20260504235049 78 207 1.7 5.2 0.00 0.00 0.00 69 1013.7
20260504234546 78 286 2.6 4.3 0.00 0.00 0.00 68 1013.7
20260504234043 78 224 1.7 2.6 0.00 0.00 0.00 67 1013.8
20260504233538 79 179 2.6 7.0 0.00 0.00 0.00 67 1014.1
20260504233035 79 164 2.6 4.3 0.00 0.00 0.00 67 1013.9
20260504232532 79 315 0.0 1.7 0.00 0.00 0.00 67 1013.9
20260504232030 79 176 0.9 2.6 0.00 0.00 0.00 66 1013.9
20260504231526 79 329 0.9 1.7 0.00 0.00 0.00 66 1014.2
20260504231022 80 201 3.5 4.3 0.00 0.00 0.00 65 1013.9
20260504230519 80 149 1.7 6.1 0.00 0.00 0.00 65 1014.1
20260504230018 80 148 1.7 4.3 0.00 0.00 0.00 64 1014.1
20260504225515 80 253 0.9 4.3 0.00 0.00 0.00 64 1014.1
20260504225012 80 174 2.6 4.3 0.00 0.00 0.00 64 1014.0
20260504224508 80 190 0.9 4.3 0.00 0.00 0.00 63 1014.1
20260504224005 80 57 2.6 5.2 0.00 0.00 0.00 63 1014.3
20260504223502 80 230 0.9 4.3 0.00 0.00 0.00 63 1014.3
20260504222957 80 3 0.9 2.6 0.00 0.00 0.00 63 1014.4
20260504222455 80 273 0.9 4.3 0.00 0.00 0.00 63 1014.3
20260504221952 80 150 1.7 7.0 0.00 0.00 0.00 62 1014.5
20260504221449 81 295 0.9 7.0 0.00 0.00 0.00 61 1014.6
20260504220946 81 190 1.7 4.3 0.00 0.00 0.00 61 1014.4
20260504220443 81 248 2.6 4.3 0.00 0.00 0.00 61 1014.7
20260504215940 81 224 2.6 5.2 0.00 0.00 0.00 61 1014.6
20260504215436 82 330 0.9 4.3 0.00 0.00 0.00 60 1014.7
20260504214933 82 145 1.7 1.7 0.00 0.00 0.00 58 1014.7
20260504214429 82 13 0.9 2.6 0.00 0.00 0.00 59 1014.8
20260504213926 83 343 1.7 2.6 0.00 0.00 0.00 58 1014.8
20260504213422 82 284 0.9 2.6 0.00 0.00 0.00 58 1014.7
20260504212920 82 85 0.9 1.7 0.00 0.00 0.00 58 1014.9
20260504212415 82 148 0.9 2.6 0.00 0.00 0.00 58 1014.9
20260504211914 83 154 1.7 1.7 0.00 0.00 0.00 58 1014.9
20260504211409 83 28 0.0 2.6 0.00 0.00 0.00 57 1015.1
20260504210907 84 275 0.9 2.6 0.00 0.00 0.00 56 1015.2
20260504210404 85 221 0.9 4.3 0.00 0.00 0.00 55 1015.2
20260504205901 85 194 3.5 5.2 0.00 0.00 0.00 54 1015.3
20260504205359 84 299 0.9 1.7 0.00 0.00 0.00 55 1015.1
20260504204857 84 304 0.0 0.9 0.00 0.00 0.00 56 1015.3
20260504204355 83 260 0.0 1.7 0.00 0.00 0.00 55 1015.6
20260504203854 84 314 0.9 2.6 0.00 0.00 0.00 54 1015.7
20260504203350 84 253 0.0 5.2 0.00 0.00 0.00 55 1015.6
20260504202846 84 193 0.9 5.2 0.00 0.00 0.00 56 1015.5
20260504202344 84 289 0.9 1.7 0.00 0.00 0.00 55 1015.7
20260504201840 83 250 0.9 2.6 0.00 0.00 0.00 57 1015.8
20260504201337 83 76 1.7 2.6 0.00 0.00 0.00 57 1016.0
20260504200835 83 319 0.0 1.7 0.00 0.00 0.00 57 1016.3
20260504200331 84 286 0.9 1.7 0.00 0.00 0.00 55 1016.3
20260504195828 86 315 1.7 4.3 0.00 0.00 0.00 53 1016.2
20260504195323 84 255 1.7 1.7 0.00 0.00 0.00 53 1016.5
20260504194820 82 316 0.9 2.6 0.00 0.00 0.00 56 1016.5
20260504194316 84 148 2.6 2.6 0.00 0.00 0.00 54 1016.5
20260504193812 83 170 4.3 6.1 0.00 0.00 0.00 54 1016.4
20260504193310 82 215 1.7 6.1 0.00 0.00 0.00 55 1016.7
20260504192808 82 263 2.6 7.0 0.00 0.00 0.00 57 1016.6
20260504192306 82 270 0.9 5.2 0.00 0.00 0.00 57 1017.1
20260504191805 83 242 0.0 0.9 0.00 0.00 0.00 53 1016.9
20260504191302 82 303 0.9 1.7 0.00 0.00 0.00 56 1017.2
20260504190757 82 203 0.9 1.7 0.00 0.00 0.00 56 1017.0
20260504190253 82 175 0.9 5.2 0.00 0.00 0.00 56 1017.1
20260504185750 80 249 2.6 5.2 0.00 0.00 0.00 56 1017.2
20260504185247 81 82 3.5 4.3 0.00 0.00 0.00 58 1017.2
20260504184743 80 313 0.0 8.7 0.00 0.00 0.00 58 1017.1
20260504184239 81 234 1.7 1.7 0.00 0.00 0.00 57 1017.4
20260504183735 82 273 3.5 5.2 0.00 0.00 0.00 55 1017.4
20260504183232 83 263 1.7 4.3 0.00 0.00 0.00 54 1017.4
20260504182730 83 279 0.9 5.2 0.00 0.00 0.00 54 1017.2
20260504182227 82 202 1.7 1.7 0.00 0.00 0.00 56 1017.2
20260504181724 81 277 0.9 2.6 0.00 0.00 0.00 57 1017.3
20260504181222 81 168 3.5 5.2 0.00 0.00 0.00 55 1017.6
20260504180721 81 332 2.6 4.3 0.00 0.00 0.00 55 1017.7
20260504180219 80 152 0.0 2.6 0.00 0.00 0.00 58 1017.5
20260504175716 80 286 1.7 4.3 0.00 0.00 0.00 58 1017.9
20260504175213 80 294 0.9 2.6 0.00 0.00 0.00 58 1017.9
20260504174711 80 150 1.7 6.1 0.00 0.00 0.00 59 1017.9
20260504174209 80 266 1.7 4.3 0.00 0.00 0.00 57 1018.0
20260504173705 79 300 0.9 4.3 0.00 0.00 0.00 59 1017.9
20260504173202 80 43 1.7 6.1 0.00 0.00 0.00 59 1018.1
20260504172658 80 196 0.9 1.7 0.00 0.00 0.00 59 1018.2
20260504172155 81 350 1.7 2.6 0.00 0.00 0.00 58 1018.2